Location: Willingham
(52.3167°N, 0.0667°E)
Time: 22:21:22
(UTC+00:00)

Cosmos 192 - Pass Details

Date: 19 May 2025
Orbit: 695 x 708 km, 74.0° (Epoch: 12 June)

Event Time Altitude Azimuth Distance (km) Brightness Sun altitude
Rises 21:45:07 0° 333° (NNW) 3,116 9.8 -12.3°
Reaches altitude 10° 21:47:27 10° 331° (NNW) 2,194 8.4 -12.5°
Maximum altitude 21:52:23 71° 249° (WSW) 753 4.5 -12.8°
Enters shadow 21:56:00 18° 168° (SSE) 1,691 5.7 -13.1°
